| time (UTC) | temp C | wind direction | speed KPH | gust KPH | rain 1hr cm | rain 24hr cm | rain mn cm | humidity % | barometer mb |
| 20260508130040 | 10 | 190 | 3.2 | 8.0 | 0.00 | 0.05 | 0.00 | 79 | 1016.7 |
| 20260508124539 | 10 | 190 | 4.8 | 9.7 | 0.00 | 0.05 | 0.00 | 80 | 1016.5 |
| 20260508123046 | 9 | 190 | 6.4 | 11.3 | 0.00 | 0.05 | 0.00 | 82 | 1016.5 |
| 20260508121545 | 9 | 190 | 4.8 | 12.9 | 0.00 | 0.05 | 0.00 | 82 | 1016.4 |
| 20260508120047 | 9 | 190 | 4.8 | 9.7 | 0.00 | 0.05 | 0.00 | 82 | 1016.4 |
| 20260508114542 | 9 | 190 | 4.8 | 9.7 | 0.00 | 0.05 | 0.00 | 81 | 1016.3 |
| 20260508113049 | 10 | 190 | 4.8 | 9.7 | 0.00 | 0.05 | 0.00 | 81 | 1016.2 |
| 20260508111537 | 11 | 190 | 3.2 | 8.0 | 0.00 | 0.05 | 0.00 | 79 | 1015.9 |
| 20260508110040 | 11 | 0 | 0.0 | 0.0 | 0.00 | 0.05 | 0.00 | 70 | 1015.8 |
| 20260508104539 | 11 | 0 | 0.0 | 4.8 | 0.00 | 0.05 | 0.00 | 70 | 1015.7 |
| 20260508103039 | 10 | 0 | 0.0 | 3.2 | 0.00 | 0.05 | 0.00 | 73 | 1015.6 |
| 20260508101541 | 10 | 190 | 0.0 | 6.4 | 0.00 | 0.05 | 0.00 | 73 | 1015.6 |
| 20260508100039 | 10 | 190 | 3.2 | 9.7 | 0.00 | 0.05 | 0.00 | 75 | 1015.6 |
| 20260508094538 | 10 | 190 | 0.0 | 6.4 | 0.00 | 0.05 | 0.00 | 74 | 1015.5 |
| 20260508093044 | 10 | 0 | 0.0 | 4.8 | 0.00 | 0.05 | 0.00 | 77 | 1015.3 |
| 20260508091549 | 10 | 190 | 1.6 | 4.8 | 0.00 | 0.05 | 0.00 | 80 | 1015.2 |
| 20260508090048 | 9 | 0 | 0.0 | 9.7 | 0.00 | 0.05 | 0.00 | 80 | 1015.1 |
| 20260508084538 | 9 | 190 | 1.6 | 4.8 | 0.00 | 0.05 | 0.00 | 81 | 1014.9 |
| 20260508083104 | 9 | 190 | 1.6 | 4.8 | 0.00 | 0.05 | 0.00 | 85 | 1014.9 |
| 20260508081539 | 8 | 190 | 3.2 | 4.8 | 0.00 | 0.05 | 0.00 | 86 | 1014.8 |
| 20260508080040 | 8 | 0 | 0.0 | 0.0 | 0.00 | 0.05 | 0.00 | 86 | 1014.5 |
| 20260508074548 | 8 | 0 | 0.0 | 0.0 | 0.00 | 0.05 | 0.00 | 89 | 1014.4 |
| 20260508073037 | 8 | 0 | 0.0 | 0.0 | 0.00 | 0.05 | 0.00 | 92 | 1014.2 |
| 20260508071541 | 7 | 0 | 0.0 | 0.0 | 0.00 | 0.05 | 0.00 | 94 | 1014.1 |
| 20260508070042 | 7 | 0 | 0.0 | 0.0 | 0.00 | 0.05 | 0.00 | 95 | 1013.9 |
| 20260508064549 | 7 | 0 | 0.0 | 0.0 | 0.00 | 0.05 | 0.00 | 96 | 1013.8 |
| 20260508063038 | 7 | 0 | 0.0 | 0.0 | 0.00 | 0.05 | 0.00 | 97 | 1013.7 |
| 20260508061537 | 7 | 0 | 0.0 | 0.0 | 0.00 | 0.05 | 0.00 | 97 | 1013.5 |
| 20260508060037 | 6 | 0 | 0.0 | 0.0 | 0.00 | 0.05 | 0.00 | 97 | 1013.2 |
| 20260508054536 | 6 | 0 | 0.0 | 0.0 | 0.00 | 0.05 | 0.00 | 97 | 1013.1 |
| 20260508053046 | 6 | 0 | 0.0 | 0.0 | 0.00 | 0.05 | 0.00 | 96 | 1013.1 |
| 20260508051540 | 6 | 0 | 0.0 | 0.0 | 0.00 | 0.05 | 0.00 | 96 | 1013.0 |
| 20260508050038 | 6 | 0 | 0.0 | 0.0 | 0.00 | 0.05 | 0.00 | 96 | 1012.8 |
| 20260508044538 | 6 | 0 | 0.0 | 0.0 | 0.00 | 0.05 | 0.00 | 96 | 1012.8 |
| 20260508043045 | 6 | 0 | 0.0 | 0.0 | 0.00 | 0.05 | 0.00 | 95 | 1012.6 |
| 20260508041542 | 6 | 0 | 0.0 | 0.0 | 0.00 | 0.05 | 0.00 | 95 | 1012.5 |
| 20260508040043 | 6 | 0 | 0.0 | 0.0 | 0.00 | 0.05 | 0.00 | 95 | 1012.4 |
| 20260508034538 | 6 | 0 | 0.0 | 0.0 | 0.00 | 0.05 | 0.00 | 95 | 1012.3 |
| 20260508033038 | 7 | 0 | 0.0 | 0.0 | 0.00 | 0.05 | 0.00 | 95 | 1012.3 |
| 20260508031537 | 7 | 0 | 0.0 | 0.0 | 0.00 | 0.05 | 0.00 | 95 | 1012.2 |
| 20260508030043 | 7 | 0 | 0.0 | 0.0 | 0.00 | 0.05 | 0.00 | 95 | 1012.2 |
| 20260508024540 | 7 | 0 | 0.0 | 0.0 | 0.00 | 0.05 | 0.00 | 95 | 1012.1 |
| 20260508023040 | 7 | 0 | 0.0 | 0.0 | 0.00 | 0.05 | 0.00 | 94 | 1012.1 |
| 20260508021546 | 7 | 0 | 0.0 | 0.0 | 0.00 | 0.05 | 0.00 | 94 | 1012.0 |
| 20260508020038 | 7 | 0 | 0.0 | 0.0 | 0.00 | 0.05 | 0.00 | 94 | 1011.9 |
| 20260508014537 | 7 | 0 | 0.0 | 0.0 | 0.00 | 0.05 | 0.00 | 94 | 1011.7 |
| 20260508013041 | 7 | 190 | 0.0 | 1.6 | 0.00 | 0.05 | 0.00 | 94 | 1011.8 |
| 20260508011539 | 7 | 0 | 0.0 | 3.2 | 0.00 | 0.05 | 0.00 | 94 | 1011.7 |
| 20260508010038 | 7 | 190 | 0.0 | 4.8 | 0.00 | 0.05 | 0.00 | 93 | 1011.7 |
| 20260508004540 | 7 | 190 | 0.0 | 3.2 | 0.00 | 0.05 | 0.00 | 93 | 1011.7 |
| 20260508003038 | 7 | 190 | 1.6 | 3.2 | 0.00 | 0.05 | 0.00 | 92 | 1011.6 |
| 20260508001539 | 7 | 0 | 0.0 | 1.6 | 0.00 | 0.05 | 0.00 | 91 | 1011.6 |
| 20260508000036 | 8 | 0 | 0.0 | 4.8 | 0.00 | 0.05 | 0.00 | 91 | 1011.6 |
| 20260507234537 | 8 | 0 | 0.0 | 3.2 | 0.00 | 0.05 | 0.00 | 90 | 1011.4 |
| 20260507233038 | 8 | 190 | 0.0 | 1.6 | 0.00 | 0.05 | 0.00 | 90 | 1011.4 |
| 20260507231537 | 8 | 0 | 0.0 | 3.2 | 0.00 | 0.05 | 0.00 | 89 | 1011.3 |
| 20260507230048 | 8 | 190 | 0.0 | 3.2 | 0.00 | 0.05 | 0.00 | 88 | 1011.4 |
| 20260507224543 | 8 | 0 | 0.0 | 4.8 | 0.00 | 0.05 | 0.05 | 88 | 1011.3 |
| 20260507223038 | 8 | 190 | 0.0 | 4.8 | 0.00 | 0.05 | 0.05 | 88 | 1011.2 |
| 20260507221537 | 8 | 190 | 0.0 | 3.2 | 0.00 | 0.05 | 0.05 | 88 | 1011.2 |
| 20260507220038 | 8 | 0 | 0.0 | 0.0 | 0.00 | 0.05 | 0.05 | 89 | 1011.0 |
| 20260507214554 | 9 | 0 | 0.0 | 0.0 | 0.00 | 0.05 | 0.05 | 88 | 1011.1 |
| 20260507213040 | 10 | 0 | 0.0 | 8.0 | 0.00 | 0.05 | 0.05 | 87 | 1010.9 |
| 20260507211538 | 10 | 190 | 1.6 | 11.3 | 0.00 | 0.05 | 0.05 | 86 | 1010.8 |
| 20260507210051 | 10 | 190 | 3.2 | 12.9 | 0.00 | 0.05 | 0.05 | 84 | 1010.6 |
| 20260507204538 | 10 | 190 | 1.6 | 9.7 | 0.00 | 0.05 | 0.05 | 85 | 1010.4 |
| 20260507203047 | 10 | 190 | 3.2 | 9.7 | 0.00 | 0.05 | 0.05 | 84 | 1010.3 |
| 20260507201543 | 10 | 190 | 3.2 | 8.0 | 0.00 | 0.05 | 0.05 | 84 | 1010.3 |
| 20260507200043 | 10 | 190 | 3.2 | 9.7 | 0.00 | 0.05 | 0.05 | 84 | 1010.1 |
| 20260507194608 | 10 | 190 | 3.2 | 8.0 | 0.00 | 0.05 | 0.05 | 85 | 1009.9 |
| 20260507193041 | 10 | 190 | 3.2 | 9.7 | 0.00 | 0.05 | 0.05 | 83 | 1009.9 |
| 20260507191542 | 11 | 190 | 4.8 | 12.9 | 0.00 | 0.05 | 0.05 | 82 | 1009.8 |
| 20260507190037 | 11 | 190 | 6.4 | 12.9 | 0.00 | 0.05 | 0.05 | 81 | 1010.0 |
| 20260507184540 | 11 | 190 | 4.8 | 14.5 | 0.00 | 0.05 | 0.05 | 80 | 1009.8 |
| 20260507183055 | 11 | 190 | 4.8 | 17.7 | 0.00 | 0.05 | 0.05 | 80 | 1009.8 |
| 20260507181539 | 12 | 190 | 6.4 | 17.7 | 0.00 | 0.05 | 0.05 | 77 | 1009.7 |
| 20260507180041 | 12 | 190 | 6.4 | 17.7 | 0.00 | 0.05 | 0.05 | 77 | 1009.8 |
| 20260507174543 | 12 | 190 | 6.4 | 16.1 | 0.00 | 0.05 | 0.05 | 77 | 1009.7 |
| 20260507173039 | 12 | 190 | 4.8 | 14.5 | 0.00 | 0.05 | 0.05 | 77 | 1009.7 |
| 20260507171545 | 12 | 190 | 6.4 | 17.7 | 0.00 | 0.05 | 0.05 | 78 | 1009.7 |
| 20260507170046 | 12 | 190 | 6.4 | 14.5 | 0.00 | 0.05 | 0.05 | 79 | 1009.8 |
| 20260507164538 | 13 | 0 | 8.0 | 24.1 | 0.00 | 0.05 | 0.05 | 76 | 1009.7 |
| 20260507163040 | 12 | 190 | 6.4 | 17.7 | 0.00 | 0.05 | 0.05 | 76 | 1009.7 |
| 20260507161540 | 12 | 190 | 3.2 | 16.1 | 0.00 | 0.05 | 0.05 | 78 | 1009.9 |
| 20260507160037 | 12 | 190 | 6.4 | 16.1 | 0.00 | 0.05 | 0.05 | 77 | 1010.0 |
| 20260507154537 | 11 | 190 | 6.4 | 17.7 | 0.00 | 0.05 | 0.05 | 79 | 1010.1 |
| 20260507153043 | 11 | 190 | 4.8 | 14.5 | 0.00 | 0.05 | 0.05 | 77 | 1010.1 |
| 20260507151539 | 11 | 190 | 6.4 | 12.9 | 0.00 | 0.05 | 0.05 | 77 | 1010.0 |
| 20260507150038 | 11 | 190 | 3.2 | 16.1 | 0.03 | 0.05 | 0.05 | 79 | 1010.0 |
| 20260507144537 | 11 | 190 | 4.8 | 11.3 | 0.05 | 0.05 | 0.05 | 79 | 1010.3 |
| 20260507143038 | 10 | 190 | 3.2 | 16.1 | 0.05 | 0.05 | 0.05 | 82 | 1010.4 |
| 20260507141542 | 10 | 190 | 4.8 | 12.9 | 0.05 | 0.05 | 0.05 | 84 | 1010.5 |
| 20260507140041 | 11 | 190 | 6.4 | 14.5 | 0.00 | 0.00 | 0.00 | 80 | 1010.6 |
| 20260507134539 | 11 | 190 | 4.8 | 19.3 | 0.00 | 0.00 | 0.00 | 78 | 1010.5 |
| 20260507133038 | 11 | 190 | 6.4 | 19.3 | 0.00 | 0.00 | 0.00 | 77 | 1010.6 |
| 20260507131550 | 12 | 190 | 8.0 | 19.3 | 0.00 | 0.00 | 0.00 | 75 | 1010.5 |